Regional Weather Roundup
Issued by NWS

Home | Current Version | Previous Version | Text Only | Print | Product List | Glossary On
Versions: 1 2 3 4 5 6 7 8 9 10 11 12 13 14 15 16 17 18 19 20 21 22 23 24 25 26 27 28 29 30 31 32 33 34 35 36 37 38 39 40 41 42 43 44 45 46 47 48 49 50
000
ASUS45 KCYS 041310
RWRWY

WYOMING REGIONAL WEATHER ROUNDUP
NATIONAL WEATHER SERVICE CHEYENNE WY
700 AM MDT SAT JUL 04 2015

NOTE:  "FAIR" INDICATES FEW OR NO CLOUDS BELOW 12,000 FEET
WITH NO SIGNIFICANT WEATHER AND/OR OBSTRUCTIONS TO VISIBILITY.

WYZ001-041400-
YELLOWSTONE NATIONAL PARK

CITY           SKY/WX    TMP DP  RH WIND       PRES   REMARKS
LK YELLOWSTONE   N/A     47  41  80 CALM      30.23R
W YELLOWSTONE  NOT AVBL

$$
WYZ002>013-054>058-071-098>099-041400-
NORTHERN WYOMING

CITY           SKY/WX    TMP DP  RH WIND       PRES   REMARKS
JACKSON        FAIR      52  46  82 N7        30.12S
CODY           FAIR      68  48  49 CALM      29.98S
GREYBULL       FAIR      66  50  56 SE3       29.90S
WORLAND        FAIR      65  55  70 S5        29.92R
SHERIDAN       FAIR      64  56  75 CALM      29.89R
BUFFALO        FAIR      70  53  54 W6        29.96R
GILLETTE       FAIR      65  58  78 S5        29.92R
HULETT         FAIR      70  55  60 SW7       29.92S
NEWCASTLE      FAIR      68  54  60 SE5       29.94S

$$
WYZ014>020-022>026-101>103-041400-
CENTRAL WYOMING

CITY           SKY/WX    TMP DP  RH WIND       PRES   REMARKS
BIG PINEY      FAIR      54  42  64 N6        30.16R
PINEDALE       FAIR      54  46  76 NW5       30.17R
DUBOIS         FAIR      54  39  58 NW13      30.16R
LANDER         FAIR      65  49  56 SW5       30.02R
RIVERTON       FAIR      66  49  54 NW9       30.01S
CASPER         FAIR      63  53  70 CALM      30.00R
DOUGLAS        FAIR      61  54  77 S3        29.98R

$$
WYZ021-027>030-104>119-041400-
SOUTHERN WYOMING

CITY           SKY/WX    TMP DP  RH WIND       PRES   REMARKS
EVANSTON       MOCLDY    62  42  47 S6        30.18R
KEMMERER       FAIR      61  43  51 NW6       30.18S
FORT BRIDGER   SUNNY     70  41  35 SW8       30.19R
ROCK SPRINGS   FAIR      64  43  46 S6        30.13S
DIXON          FAIR      56  43  60 E6        30.18R
RAWLINS        FAIR      58  51  78 CALM      30.13S
SARATOGA       FAIR      59  43  55 S5        30.16S
LARAMIE        FAIR      58  48  69 SE7       30.14R
CHEYENNE       FAIR      63  56  78 W8        30.05F
TORRINGTON     FAIR      65  60  84 E7        29.94R
PINE BLUFFS    FAIR      63  59  88 CALM      30.01S

$$



USA.gov is the U.S. government's official web portal to all federal, state and local government web resources and services.